This is the latest recevied weather packets stored in our database for station/object KM8V-8. If no packets are shown the sender has not sent any weather packets the latest 10 day(s).
| Time | Temp. | Humidity | Pressure | Rain* | Wind** | Luminosity | Snow |
|---|---|---|---|---|---|---|---|
| 1778081716 | 10° C | 81% | 1011.3 hPa | 0 mm | - | 847 W/m² | - |
| 1778081416 | 10° C | 83% | 1011.1 hPa | 0 mm | - | 854 W/m² | - |
| 1778081117 | 10° C | 82% | 1011 hPa | 0 mm | - | 807 W/m² | - |
| 1778080819 | 10° C | 82% | 1010.9 hPa | 0 mm | - | 712 W/m² | - |
| 1778080518 | 10° C | 82% | 1010.8 hPa | 0 mm | - | 644 W/m² | - |
| 1778080225 | 10° C | 84% | 1010.7 hPa | 0 mm | - | 519 W/m² | - |
| 1778079919 | 10° C | 84% | 1010.7 hPa | 0 mm | - | 585 W/m² | - |
| 1778079619 | 10° C | 84% | 1010.8 hPa | 0 mm | - | 539 W/m² | - |
| 1778079317 | 10.56° C | 84% | 1010.8 hPa | 0 mm | - | 575 W/m² | - |
| 1778079017 | 10.56° C | 85% | 1010.7 hPa | 0 mm | - | 629 W/m² | - |
| 1778078717 | 10.56° C | 86% | 1010.6 hPa | 0 mm | - | 682 W/m² | - |
| 1778078417 | 10° C | 86% | 1010.5 hPa | 0 mm | - | 651 W/m² | - |
| 1778078117 | 10° C | 85% | 1010.5 hPa | 0 mm | - | 587 W/m² | - |
| 1778077818 | 10° C | 84% | 1010.5 hPa | 0 mm | - | 304 W/m² | - |
| 1778077517 | 10° C | 85% | 1010.4 hPa | 0 mm | - | 329 W/m² | - |
| 1778077218 | 10° C | 86% | 1010.3 hPa | 0 mm | - | 343 W/m² | - |
| 1778076918 | 10° C | 87% | 1010.2 hPa | 0 mm | - | 330 W/m² | - |
| 1778076618 | 9.44° C | 88% | 1010.2 hPa | 0 mm | - | 305 W/m² | - |
| 1778076318 | 9.44° C | 89% | 1010.2 hPa | 0 mm | - | 284 W/m² | - |
| 1778076018 | 9.44° C | 89% | 1010.3 hPa | 0 mm | - | 229 W/m² | - |
| 1778075718 | 9.44° C | 89% | 1010.4 hPa | 0 mm | - | 231 W/m² | - |
| 1778075418 | 8.89° C | 89% | 1010.4 hPa | 0 mm | - | 236 W/m² | - |
| 1778075118 | 8.89° C | 89% | 1010.4 hPa | 0 mm | - | 215 W/m² | - |
| 1778074818 | 8.89° C | 89% | 1010.3 hPa | 0 mm | - | 208 W/m² | - |
| 1778074518 | 8.89° C | 90% | 1010.3 hPa | 0 mm | - | 213 W/m² | - |
* Rain latest hour (hover to see other rain measurements)
** Current wind speed in m/s (hover to see current wind gust speed)